Change the Weather History Date:

Thursday, October 11, 2012

  Actual Average Record
Temperature  
Mean Temperature 77 °F -  
Max Temperature 81 °F 76 °F 81 °F (2012)
Min Temperature 73 °F 71 °F 71 °F (1997)
Cooling Degree Days 12    
Growing Degree Days 27 (Base 50)    
Moisture  
Dew Point 71 °F    
Average Humidity 87    
Maximum Humidity 100    
Minimum Humidity 62    
Precipitation  
Precipitation 0.00 in - - ()
Sea Level Pressure  
Sea Level Pressure 29.92 in    
Wind  
Wind Speed 9 mph ()    
Max Wind Speed 14 mph    
Max Gust Speed -    
Visibility 6.2 miles    
Events      
Averages and records for this station are not official NWS values.
T = Trace of Precipitation, MM = Missing Value Source: Averaged Metar Reports

Daily Weather History Graph

Daily Weather History Graph

Search for Another Location

Airport or City:

Trip Planner

Search our weather history database for the weather conditions in past years. The results will help you decide how hot, cold, wet, or windy it might be!

Date:

Astronomy

Oct. 11, 2012 Rise Set
Actual Time 5:35 AM CXT 5:52 PM CXT
Civil Twilight 5:14 AM CXT 6:13 PM CXT
Nautical Twilight 4:49 AM CXT 6:38 PM CXT
Astronomical Twilight 4:24 AM CXT 7:03 PM CXT
Moon 1:56 AM CXT (10/11) 2:03 PM CXT (10/11)
Length of Visible Light 12h 59m
Length of Day
12h 17m
Waning Crescent, 22% of the Moon is Illuminated
Oct 11
Waning Crescent
Oct 15
New
Oct 22
First Quarter
Oct 30
Full
Nov 7
Last Quarter

Hourly Weather History & Observations

Time (CXT) Temp. Heat Index Dew Point Humidity Pressure Visibility Wind Dir Wind Speed Gust Speed Precip Events Conditions
12:00 AM 74 °F - 69 °F 80% 29.91 in - SE 6.9 mph - -   Overcast
12:00 AM 75.2 °F - 69.8 °F 83% 29.95 in 6.2 mi SE 6.9 mph - N/A   Overcast
12:04 AM 75.2 °F - 68.0 °F 78% 29.95 in 6.2 mi SE 8.1 mph - N/A   Overcast
12:54 AM 75.2 °F - 69.8 °F 83% 29.92 in 6.2 mi SE 8.1 mph - N/A   Overcast
1:00 AM 74 °F - 70 °F 82% 29.89 in - SE 8.1 mph - -  
1:00 AM 75.2 °F - 69.8 °F 83% 29.92 in 6.2 mi SE 8.1 mph - N/A   Overcast
1:58 AM 73.4 °F - 69.8 °F 88% 29.92 in 6.2 mi SE 8.1 mph - N/A   Overcast
2:00 AM 73.4 °F - 69.8 °F 88% 29.92 in 6.2 mi SE 8.1 mph - N/A   Overcast
2:23 AM 73.4 °F - 69.8 °F 88% 29.92 in 6.2 mi SE 8.1 mph - N/A   Overcast
3:00 AM 74 °F - 70 °F 83% 29.87 in - SSE 5.8 mph - -   Overcast
3:00 AM 73.4 °F - 69.8 °F 88% 29.92 in 6.2 mi SSE 5.8 mph - N/A   Overcast
4:00 AM 74 °F - 70 °F 85% 29.88 in - SE 8.1 mph - -  
4:00 AM 73.4 °F - 69.8 °F 88% 29.92 in 6.2 mi SE 8.1 mph - N/A   Overcast
4:11 AM 73.4 °F - 69.8 °F 88% 29.92 in 6.2 mi SE 8.1 mph - N/A   Overcast
5:00 AM 73.4 °F - 69.8 °F 88% 29.92 in 6.2 mi SE 9.2 mph - N/A   Overcast
5:04 AM 75.2 °F - 69.8 °F 83% 29.92 in 6.2 mi SE 9.2 mph - N/A   Overcast
5:09 AM 75.2 °F - 69.8 °F 83% 29.92 in 6.2 mi SE 9.2 mph - N/A   Overcast
5:19 AM 75.2 °F - 69.8 °F 83% 29.92 in 6.2 mi SE 9.2 mph - N/A   Overcast
6:00 AM 74 °F - 70 °F 85% 29.91 in - SSE 8.1 mph - -   Overcast
6:00 AM 73.4 °F - 69.8 °F 88% 29.95 in 6.2 mi SSE 8.1 mph - N/A   Mostly Cloudy
7:00 AM 76 °F - 70 °F 75% 29.93 in - SE 11.5 mph - -  
7:00 AM 75.2 °F - 69.8 °F 83% 29.98 in 6.2 mi SE 11.5 mph - N/A   Overcast
8:00 AM 77.0 °F - 69.8 °F 78% 29.98 in 6.2 mi SE 12.7 mph - N/A   Overcast
8:56 AM 78.8 °F - 69.8 °F 74% 29.98 in 6.2 mi SE 11.5 mph - N/A   Scattered Clouds
9:00 AM 79 °F - 70 °F 67% 29.95 in - SE 12.7 mph - -  
9:00 AM 78.8 °F - 69.8 °F 74% 29.98 in 6.2 mi SE 12.7 mph - N/A   Scattered Clouds
9:54 AM 78.8 °F - 69.8 °F 74% 29.98 in 6.2 mi SSE 10.4 mph - N/A   Mostly Cloudy
10:00 AM 78 °F - 70 °F 69% 29.94 in - SE 10.4 mph - -  
10:00 AM 78.8 °F - 69.8 °F 74% 29.98 in 6.2 mi SE 10.4 mph - N/A   Mostly Cloudy
10:58 AM 80.6 °F 83.9 °F 69.8 °F 70% 29.95 in 6.2 mi SE 11.5 mph - N/A   Mostly Cloudy
11:00 AM 78.8 °F - 69.8 °F 74% 29.95 in 6.2 mi SE 11.5 mph - N/A   Mostly Cloudy
11:34 AM 78.8 °F - 69.8 °F 74% 29.95 in 6.2 mi SSE 10.4 mph - N/A   Mostly Cloudy
12:00 PM 80 °F - 69 °F 62% 29.90 in - SE 10.4 mph - -   Overcast
12:00 PM 78.8 °F - 69.8 °F 74% 29.92 in 6.2 mi SE 10.4 mph - N/A   Mostly Cloudy
12:57 PM 78.8 °F - 68.0 °F 69% 29.92 in 6.2 mi SSE 10.4 mph - N/A   Scattered Clouds
1:00 PM 79 °F - 68 °F 62% 29.88 in - SSE 9.2 mph - -  
1:00 PM 78.8 °F - 68.0 °F 69% 29.92 in 6.2 mi SSE 9.2 mph - N/A   Scattered Clouds
2:00 PM 78.8 °F - 68.0 °F 69% 29.89 in 6.2 mi SSE 10.4 mph - N/A   Unknown
3:00 PM 78 °F - 69 °F 68% 29.85 in - South 9.2 mph - -  
3:03 PM 78.8 °F - 69.8 °F 74% 29.89 in 6.2 mi SSE 9.2 mph - N/A   Mostly Cloudy
3:17 PM 77.0 °F - 71.6 °F 83% 29.89 in 6.2 mi SSE 10.4 mph - N/A   Scattered Clouds
3:25 PM 77.0 °F - 73.4 °F 89% 29.89 in 6.2 mi SSE 11.5 mph - N/A   Mostly Cloudy
4:00 PM 78 °F - 77 °F 97% 29.84 in - SSE 10.4 mph - -  
4:00 PM 77.0 °F - 77.0 °F 100% 29.86 in 6.2 mi SSE 10.4 mph - N/A   Mostly Cloudy
5:00 PM 75.2 °F - 75.2 °F 100% 29.89 in 6.2 mi SSE 11.5 mph - N/A   Mostly Cloudy
5:53 PM 75.2 °F - 75.2 °F 100% 29.89 in 6.2 mi SSE 11.5 mph - N/A   Mostly Cloudy
6:00 PM 74 °F - 74 °F 100% 29.86 in - SE 12.7 mph - -  
6:00 PM 75.2 °F - 75.2 °F 100% 29.89 in 6.2 mi SE 12.7 mph - N/A   Mostly Cloudy
6:14 PM 75.2 °F - 75.2 °F 100% 29.89 in 6.2 mi SSE 11.5 mph - N/A   Mostly Cloudy
6:20 PM 75.2 °F - 75.2 °F 100% 29.89 in 6.2 mi SSE 11.5 mph - N/A   Mostly Cloudy
6:32 PM 75.2 °F - 73.4 °F 94% 29.92 in 6.2 mi SE 13.8 mph - N/A   Scattered Clouds
7:00 PM 74 °F - 74 °F 100% 29.88 in - SE 13.8 mph - -  
7:00 PM 75.2 °F - 73.4 °F 94% 29.92 in 6.2 mi SE 13.8 mph - N/A   Scattered Clouds
8:00 PM 73.4 °F - 73.4 °F 100% 29.92 in 6.2 mi SSE 11.5 mph - N/A   Scattered Clouds
8:07 PM 73.4 °F - 73.4 °F 100% 29.92 in 6.2 mi SSE 11.5 mph - N/A   Mostly Cloudy
8:49 PM 73.4 °F - 73.4 °F 100% 29.92 in 6.2 mi SSE 12.7 mph - N/A   Scattered Clouds
9:00 PM 74 °F - 74 °F 100% 29.90 in - SSE 10.4 mph - -  
9:00 PM 73.4 °F - 73.4 °F 100% 29.92 in 6.2 mi SSE 10.4 mph - N/A   Scattered Clouds
9:16 PM 73.4 °F - 73.4 °F 100% 29.95 in 6.2 mi SSE 11.5 mph - N/A   Mostly Cloudy
9:44 PM 73.4 °F - 73.4 °F 100% 29.95 in 6.2 mi SSE 11.5 mph - N/A   Mostly Cloudy
9:57 PM 73.4 °F - 73.4 °F 100% 29.95 in 6.2 mi SSE 10.4 mph - N/A   Scattered Clouds
10:00 PM 74 °F - 74 °F 99% 29.90 in - SSE 11.5 mph - -  
10:00 PM 73.4 °F - 73.4 °F 100% 29.95 in 6.2 mi SSE 11.5 mph - N/A   Scattered Clouds
10:26 PM 73.4 °F - 73.4 °F 100% 29.92 in 6.2 mi SSE 11.5 mph - N/A   Mostly Cloudy
10:49 PM 73.4 °F - 73.4 °F 100% 29.92 in 6.2 mi SSE 12.7 mph - N/A   Scattered Clouds
11:00 PM 73.4 °F - 73.4 °F 100% 29.92 in 6.2 mi SSE 12.7 mph - N/A   Scattered Clouds
11:12 PM 73.4 °F - 73.4 °F 100% 29.92 in 6.2 mi SSE 10.4 mph - N/A   Mostly Cloudy
11:22 PM 73.4 °F - 73.4 °F 100% 29.92 in 6.2 mi SSE 11.5 mph - N/A   Scattered Clouds
11:31 PM 73.4 °F - 73.4 °F 100% 29.92 in 6.2 mi SE 10.4 mph - N/A   Mostly Cloudy
11:51 PM 73.4 °F - 73.4 °F 100% 29.92 in 6.2 mi SE 11.5 mph - N/A   Mostly Cloudy